Location: Archamps
(46.1365°N, 6.1329°E)
Time: 17:34:33
(UTC+00:00)

Lacrosse 5 rocket - Pass Details

Date: 28 January 2023
Orbit: 455 x 612 km, 57.0° (Epoch: 29 March)

Event Time Altitude Azimuth Distance (km) Brightness Sun altitude
Rises 18:48:22 0° 310° (NW) 2,481 5.4 -23.2°
Reaches altitude 10° 18:50:56 10° 329° (NNW) 1,617 4.0 -23.7°
Enters shadow 18:52:07 15° 345° (NNW) 1,328 3.4 -23.9°
